GFSNGP_850_thetae_000.txt.gz
Theta_e
332 334 335 335 334 332 330 333 332 335 338 344 343 340 335 345 356 356 354 353 351 350 348 345 347 344 347 348 343 343 341 343 340 339 341 339 339 337 337 336 335 334 333 333
336 334 333 334 334 332 330 329 331 331 342 337 334 332 332 337 353 353 352 350 350 350 350 349 349 346 346 346 346 344 342 343 341 338 338 338 339 335 336 336 336 335 335 334
338 334 333 336 333 335 332 331 332 340 342 338 339 339 335 351 350 350 349 349 347 346 345 345 344 344 346 346 348 345 344 341 342 337 339 336 335 337 338 337 336 336 335 335
339 338 338 337 338 338 338 333 332 348 342 337 335 338 341 352 350 349 346 344 343 342 342 341 340 340 341 342 344 345 343 342 341 337 337 337 337 337 337 335 333 332 333 332
339 338 336 340 339 336 340 334 335 343 347 339 342 343 349 349 347 344 342 341 339 337 335 332 329 329 330 330 332 341 345 342 340 337 335 336 337 337 335 333 332 330 325 329
341 337 337 337 339 339 339 337 344 343 349 348 346 350 346 343 341 339 337 336 333 329 330 330 332 333 334 336 337 339 342 342 339 338 336 336 335 335 333 333 329 328 327 324
333 336 336 339 340 338 337 345 344 347 346 347 348 346 342 340 339 337 335 333 330 331 331 332 332 333 336 336 338 339 342 341 338 337 337 335 334 334 334 332 330 327 325 324
336 337 337 337 336 336 347 344 346 346 345 343 341 340 340 338 335 333 330 329 330 331 330 330 329 331 334 335 334 335 337 338 337 337 335 334 334 333 331 329 327 325 324 322
343 345 343 346 346 345 344 343 346 345 342 340 339 338 336 334 331 329 328 329 329 329 328 328 329 330 331 329 329 331 333 334 334 333 333 332 331 328 326 322 321 320 318 318
338 338 343 342 342 342 342 341 342 341 339 337 336 335 333 330 328 329 327 328 328 328 327 326 326 327 327 325 326 327 328 326 325 325 324 323 322 320 319 317 317 317 317 316
336 339 333 339 340 341 341 340 339 337 337 336 335 333 330 328 328 326 327 326 327 327 324 322 321 321 322 322 324 324 323 323 322 322 320 318 316 314 313 310 308 308 306 304
334 338 337 337 341 340 339 337 337 335 333 333 333 331 329 326 325 326 325 325 325 323 321 320 320 320 319 320 321 320 319 317 315 313 311 310 307 303 302 301 300 299 299 298
334 336 337 336 336 334 334 333 332 332 332 331 331 330 326 324 325 326 325 323 322 320 321 320 319 318 317 315 313 312 311 309 308 307 304 303 302 301 300 299 301 301 300 298
330 327 331 327 332 333 333 332 332 331 331 330 329 327 326 324 324 323 322 321 320 320 319 318 318 317 316 314 312 311 309 307 308 309 308 308 307 306 306 304 303 303 301 299
323 328 329 326 334 333 333 332 330 329 329 329 328 327 325 323 323 322 322 320 319 318 317 316 315 313 312 310 310 310 311 311 312 311 311 310 309 309 308 307 306 305 303 302
322 321 328 322 332 333 332 332 329 328 329 328 328 326 324 323 323 322 319 318 317 316 315 316 315 315 316 315 314 314 313 312 311 310 310 310 310 310 309 308 308 307 305 304
322 323 327 332 332 332 331 330 329 327 327 327 327 325 324 321 318 313 314 314 315 319 319 317 317 317 316 315 314 313 312 312 312 313 311 311 310 309 309 308 308 306 304 303
322 324 327 330 332 331 330 329 328 327 326 327 326 322 318 316 313 312 315 316 319 319 317 317 316 316 316 316 314 314 314 313 313 313 312 311 310 309 309 307 308 305 303 297
322 323 325 326 332 330 329 328 326 326 325 325 324 321 318 316 312 315 316 317 316 317 317 317 317 317 317 316 314 315 314 313 313 312 311 310 310 309 308 307 306 304 303 301
322 322 323 329 331 329 328 326 325 324 322 321 321 318 316 313 315 314 316 317 318 317 317 318 317 317 318 313 314 314 314 311 310 312 311 310 309 308 307 306 305 304 303 301
321 322 328 329 329 328 326 325 323 321 319 317 315 314 313 315 315 316 319 318 318 318 317 316 318 318 316 315 309 310 310 311 310 310 310 309 309 308 308 306 304 303 302 301
325 328 328 328 326 325 323 323 320 317 315 314 312 315 317 318 319 318 318 318 318 316 316 316 315 312 312 312 308 309 309 309 309 309 310 308 308 308 307 306 305 303 302 301
328 326 325 323 322 323 320 318 315 313 313 314 316 318 318 317 316 316 317 316 315 316 312 313 313 311 309 308 306 309 309 309 308 308 308 308 307 307 306 306 304 303 301 301
323 321 322 322 321 318 315 314 314 313 314 317 315 312 312 314 316 316 315 314 315 314 313 313 313 309 308 306 308 308 308 307 307 307 307 307 307 306 306 304 303 301 301 300
322 321 320 317 315 314 313 313 314 314 313 313 313 312 316 316 315 314 315 316 316 314 312 312 311 309 307 304 307 308 307 306 305 306 306 306 305 305 304 303 302 301 301 301
319 316 314 314 313 313 312 312 312 312 312 311 315 315 316 315 316 316 316 316 315 312 311 310 308 306 305 306 307 306 306 305 305 304 304 304 304 303 303 302 302 301 301 300
313 312 312 312 312 312 312 312 311 313 316 316 314 314 314 315 316 316 314 313 312 311 309 309 307 306 305 306 306 305 304 304 304 304 303 303 302 302 302 302 301 301 301 301

GFSNGP_850_thetae_003.txt.gz
Theta_e
334 334 331 334 333 334 331 328 332 330 341 339 340 335 335 342 333 342 349 347 348 349 349 347 346 345 344 347 342 343 343 341 340 337 339 339 339 336 335 335 333 332 332 333
337 336 335 335 335 336 334 330 328 335 340 340 336 339 343 338 334 335 350 350 349 348 347 348 347 347 347 347 345 343 343 342 341 337 337 337 335 335 336 335 334 333 333 333
336 337 337 335 337 339 338 335 333 337 336 336 336 340 349 341 346 352 349 347 347 345 345 345 346 346 346 345 345 345 344 341 340 338 335 334 337 336 335 335 334 334 333 333
336 339 341 335 337 336 337 341 341 338 336 335 338 339 346 352 351 348 346 344 343 342 342 342 342 341 342 342 343 345 344 342 340 339 336 337 337 337 335 334 331 332 334 333
342 339 338 336 339 336 340 346 341 336 336 339 338 350 349 349 347 344 342 341 341 340 340 339 335 329 328 329 330 337 344 342 339 338 337 337 337 337 335 333 330 325 327 329
338 341 342 336 336 335 338 345 345 339 338 335 343 348 343 342 342 340 340 340 339 337 328 328 329 330 331 332 335 334 340 343 339 337 336 336 335 336 334 332 329 326 324 327
336 338 336 335 336 337 339 347 347 340 339 343 343 345 341 340 337 338 338 336 329 328 329 329 330 331 332 333 335 335 337 341 340 338 336 336 335 335 333 331 331 330 325 324
334 335 334 348 343 346 348 347 348 347 345 342 343 342 339 338 337 336 333 327 329 328 328 330 331 330 333 333 333 335 338 338 338 338 336 335 334 333 330 329 330 327 323 322
339 343 342 343 347 345 347 344 344 345 341 338 338 340 337 336 335 332 329 327 327 327 327 328 329 329 331 330 330 331 331 333 334 333 331 329 332 332 329 325 324 321 320 320
339 338 338 337 340 341 345 343 341 340 340 339 340 337 335 333 331 326 326 326 326 326 325 326 326 327 327 327 327 328 329 325 323 324 325 326 325 322 321 320 319 318 318 318
336 335 335 333 339 336 332 339 338 338 338 337 337 335 333 329 326 325 327 323 324 323 323 323 323 323 324 323 324 326 324 323 321 319 319 319 318 316 316 314 312 312 312 310
334 336 332 337 332 336 336 335 336 336 335 335 335 332 329 326 325 324 324 322 323 322 320 320 321 320 320 319 320 320 319 317 316 315 314 313 312 306 301 300 299 299 298 298
332 333 336 335 335 333 333 333 333 332 333 332 331 329 326 325 324 324 323 323 321 319 318 318 318 316 315 314 313 311 310 308 306 304 302 301 301 301 301 301 301 300 298 297
328 330 330 330 328 332 332 331 332 331 331 331 329 327 324 323 323 323 323 321 320 318 318 317 316 315 313 311 310 307 307 308 308 307 307 306 306 306 306 305 302 300 298 297
324 325 330 331 333 333 332 332 331 330 329 328 327 325 323 322 323 322 321 321 319 319 318 317 315 312 310 309 311 311 310 310 309 309 308 307 307 307 307 306 304 303 301 300
323 322 328 329 329 333 331 330 329 329 328 327 326 324 323 322 323 321 321 319 318 317 312 312 312 312 312 312 312 312 312 310 309 309 309 308 308 308 307 307 305 304 303 301
324 325 325 325 330 331 331 330 329 328 328 326 327 325 323 322 322 320 318 319 315 316 316 317 317 317 316 314 314 312 312 311 310 310 309 309 309 308 308 307 305 304 303 302
321 322 326 328 326 323 321 323 328 326 327 328 326 325 324 322 321 317 315 318 319 319 317 317 317 317 316 315 313 313 312 311 312 311 311 311 310 309 308 307 306 304 300 299
318 321 326 328 327 326 329 329 329 326 326 327 326 325 323 320 313 315 319 319 320 319 317 316 316 317 316 314 314 314 313 313 312 312 312 310 308 309 307 307 305 303 302 299
319 321 322 329 328 329 327 327 326 325 325 326 323 319 318 313 315 316 314 315 318 317 317 317 316 316 315 314 315 313 312 312 310 311 311 310 310 308 306 306 305 303 302 300
319 320 322 329 328 327 327 326 324 324 324 325 322 319 317 313 317 317 318 317 318 317 317 318 316 316 316 312 311 312 309 311 310 310 311 309 309 308 307 306 304 303 302 301
318 323 326 327 327 327 325 324 323 322 321 321 320 317 314 315 315 317 318 317 317 316 316 317 318 315 314 313 311 305 308 309 309 309 309 309 308 308 308 306 304 303 302 301
327 326 325 325 325 325 323 322 321 321 318 316 315 313 315 316 318 318 318 317 317 316 316 315 313 309 309 306 308 306 308 308 308 309 308 307 308 307 307 306 305 305 303 301
325 325 324 324 324 323 321 319 319 317 313 314 314 316 317 317 316 315 317 315 315 314 313 313 313 313 312 308 305 308 308 307 307 306 307 306 307 307 306 306 305 304 303 301
321 321 321 321 319 319 319 316 316 317 316 317 317 315 314 313 315 316 315 315 315 315 314 313 312 311 310 309 304 307 307 306 305 305 305 305 306 306 306 304 303 303 301 300
318 317 318 319 319 316 316 316 315 315 314 315 314 314 316 315 315 315 316 316 316 315 314 313 310 308 306 304 306 306 306 305 305 304 304 304 304 303 303 303 302 302 301 301
316 317 316 315 314 314 313 313 313 313 313 313 314 315 315 315 315 316 316 315 315 312 309 309 309 307 306 305 305 305 305 304 304 304 303 303 302 302 302 302 302 301 301 301

GFSNGP_850_thetae_006.txt.gz
Theta_e
328 332 334 334 332 333 330 326 326 326 339 338 336 334 335 333 332 341 334 332 343 344 346 346 347 344 344 344 340 342 343 340 340 336 338 338 337 335 334 332 332 332 332 333
333 333 334 335 334 335 335 335 327 336 341 334 334 334 335 333 335 336 334 341 345 345 347 348 346 346 345 345 342 342 342 341 339 337 336 337 335 335 334 333 332 332 333 333
332 333 334 333 333 335 335 334 331 335 335 337 336 339 339 334 335 333 333 345 344 345 346 346 345 346 346 346 345 342 343 341 340 338 335 333 333 335 334 334 333 333 333 332
329 330 335 331 333 333 336 346 337 334 335 336 339 338 341 337 334 334 336 342 346 345 344 344 343 343 344 343 342 344 343 341 341 337 335 333 334 334 334 333 331 331 330 332
333 332 332 334 334 335 339 348 339 338 338 339 342 345 343 338 339 340 342 343 343 342 342 341 340 338 334 332 333 341 343 342 340 338 335 335 335 335 333 331 328 325 327 329
333 337 338 332 332 335 333 343 341 337 346 346 347 346 341 339 342 341 341 341 342 340 339 334 328 327 328 329 331 332 339 341 339 339 337 335 336 335 335 332 330 325 323 325
333 335 332 342 345 338 331 329 342 337 339 344 341 341 339 339 339 339 339 338 337 336 327 327 328 328 330 332 334 334 334 338 339 339 338 336 336 335 334 331 330 329 326 326
329 333 334 339 345 344 341 346 342 338 339 343 343 341 338 338 337 337 336 332 328 327 327 328 330 329 331 332 332 334 335 337 337 338 337 336 335 333 331 331 329 327 325 324
330 329 338 337 340 344 344 344 343 342 342 342 338 336 335 334 333 331 329 326 326 326 327 328 328 328 330 331 331 332 332 333 334 334 334 331 332 330 330 328 326 325 322 322
333 333 335 336 341 342 341 341 343 341 341 340 340 336 334 333 331 330 326 326 326 325 326 326 327 328 328 328 328 328 329 328 329 329 324 325 326 323 324 323 324 321 321 320
331 332 334 336 334 333 330 331 334 339 338 337 336 333 334 331 330 326 325 324 325 326 325 326 325 326 326 326 325 326 325 324 324 323 323 323 319 318 319 318 317 318 318 317
331 334 332 333 336 333 332 336 334 335 338 337 337 335 332 329 326 325 324 324 323 324 323 323 323 323 323 322 323 323 323 321 320 319 317 316 315 311 305 303 303 303 303 303
332 334 334 332 332 335 336 335 336 336 336 335 333 332 328 325 324 323 322 322 322 322 320 320 320 319 318 318 317 316 315 312 309 307 304 302 302 301 301 300 299 298 298 298
329 329 331 332 332 332 332 333 333 333 333 332 331 327 325 325 324 324 322 322 321 320 318 318 317 314 312 309 307 307 306 306 306 304 306 307 306 306 304 302 300 298 298 298
323 326 330 332 331 332 332 332 331 331 331 330 328 326 324 323 323 323 322 321 319 318 317 315 314 312 308 308 309 309 308 308 307 307 308 308 307 306 306 305 302 300 299 300
323 323 325 331 332 332 331 331 330 330 329 327 325 324 323 322 322 322 321 320 318 317 315 312 310 310 311 311 310 310 309 308 308 308 308 307 307 307 306 306 305 305 302 300
322 325 324 327 328 332 331 330 329 328 327 326 324 323 322 322 321 321 320 319 317 313 311 312 312 312 312 312 311 310 309 309 309 309 309 308 308 307 307 306 305 304 303 301
319 322 323 322 324 329 330 330 328 328 327 326 325 323 322 322 321 320 317 312 314 317 317 316 316 315 315 313 311 311 311 310 310 310 309 310 309 309 308 307 306 304 299 300
319 320 320 324 326 328 330 328 328 328 327 326 325 323 323 322 319 319 318 316 317 317 317 318 317 316 315 315 312 312 313 311 312 311 311 311 308 309 307 306 306 303 300 300
319 319 319 325 325 324 322 325 327 327 327 327 326 324 323 322 318 317 317 318 319 319 317 316 316 316 315 315 314 314 312 311 312 312 312 312 309 308 307 306 305 303 301 300
320 320 319 323 326 325 323 324 326 326 326 326 326 325 323 317 315 316 317 318 317 317 317 316 316 316 316 313 314 313 310 311 311 311 312 311 309 309 307 306 305 304 302 301
322 320 320 324 325 324 324 324 326 325 325 325 324 321 316 315 316 316 317 318 316 316 317 317 316 316 315 315 312 310 307 308 309 310 310 310 310 309 308 307 305 304 303 302
321 320 320 325 322 323 324 324 324 323 324 324 322 318 313 316 317 317 316 317 317 317 316 317 317 313 310 308 306 309 306 308 308 308 307 307 307 308 309 308 307 304 303 302
325 325 324 324 324 324 323 321 321 320 321 321 319 316 315 316 315 317 318 317 316 315 316 315 313 313 312 311 309 307 307 308 307 307 307 306 306 307 307 307 306 305 304 303
323 322 322 323 323 322 321 319 319 316 316 315 315 315 315 317 316 316 314 314 315 314 314 313 313 311 308 306 305 305 306 307 306 306 305 305 305 306 305 305 305 305 304 303
319 320 321 321 320 319 318 317 316 316 315 316 316 316 315 314 314 314 315 315 314 315 316 315 312 309 308 306 305 306 306 305 305 305 304 304 304 303 303 304 303 303 302 301
318 318 317 317 317 316 316 316 316 315 315 314 313 315 315 315 315 315 315 315 315 311 311 310 309 308 308 307 306 305 305 305 304 304 303 303 303 303 303 302 302 302 302 302

GFSNGP_850_thetae_012.txt.gz
Theta_e
318 319 327 330 330 323 325 323 329 329 322 324 332 334 337 344 346 345 345 345 343 344 343 343 342 342 342 342 339 340 341 340 338 336 336 335 336 334 332 331 332 332 332 332
328 329 329 332 331 328 329 325 323 326 325 325 328 334 338 342 346 346 346 343 342 343 343 343 343 343 344 341 339 340 342 342 339 337 336 336 335 332 332 331 332 332 332 332
324 328 327 325 330 331 332 330 330 333 329 331 332 333 336 336 343 346 345 343 343 344 343 343 343 344 345 344 341 340 341 343 342 338 338 336 334 332 333 332 332 332 331 331
323 325 328 322 325 329 335 340 337 334 333 332 331 333 333 333 336 344 341 341 343 344 344 344 344 343 344 343 343 343 342 341 342 341 339 337 334 332 332 332 331 330 329 330
327 325 326 331 333 340 334 335 334 335 333 336 334 334 335 334 336 337 338 340 342 341 340 340 340 341 340 339 337 337 338 340 341 341 340 338 336 333 333 331 328 324 324 327
328 331 332 327 336 340 338 334 333 335 335 338 335 335 333 336 334 335 338 341 341 340 340 338 339 336 331 327 326 326 328 330 340 341 340 339 336 334 333 332 330 325 324 325
329 332 330 330 338 338 334 331 338 338 338 339 335 334 334 335 335 334 335 336 339 339 338 337 332 328 327 328 330 330 331 332 339 340 340 338 336 335 334 333 331 327 327 327
324 329 330 335 337 335 331 341 339 340 340 338 334 334 334 335 336 338 337 336 339 337 335 331 327 328 329 331 331 331 331 331 333 335 337 337 336 335 333 331 329 328 328 326
322 324 331 336 337 339 341 341 337 341 342 341 337 334 334 335 336 338 339 338 335 332 328 326 327 329 330 330 330 330 331 331 332 332 334 333 334 333 331 329 328 327 325 325
328 330 333 335 338 338 341 341 337 341 342 342 339 337 336 336 337 336 334 332 329 326 326 327 327 327 328 327 328 329 328 331 330 331 330 328 326 327 323 322 324 326 324 322
327 328 332 334 335 338 340 339 337 338 340 341 339 338 338 334 333 332 329 325 324 325 326 326 325 325 325 325 325 327 328 328 328 326 325 324 323 323 323 322 319 320 321 320
329 328 330 331 332 337 339 338 338 339 338 338 338 337 336 333 331 329 324 323 323 323 324 324 325 324 324 325 325 326 326 326 324 323 322 322 322 322 321 318 318 317 317 317
328 332 332 332 333 332 332 334 337 336 336 337 335 335 333 332 328 324 323 324 323 323 323 323 323 323 323 323 322 321 322 320 318 315 311 310 309 310 314 313 311 310 309 308
330 329 331 332 330 334 334 335 335 335 335 335 334 332 331 327 324 323 322 323 322 322 322 321 321 322 320 319 318 316 310 305 304 304 304 303 302 300 299 299 299 300 301 301
325 326 325 327 330 331 332 333 334 334 334 333 331 329 325 324 322 323 322 321 321 320 319 319 318 313 309 306 305 305 306 307 307 307 307 306 305 305 305 303 300 299 299 301
321 323 322 322 329 330 332 331 333 332 330 329 328 326 324 323 322 322 321 321 320 319 319 315 310 308 307 307 307 307 308 308 308 308 308 307 307 307 306 305 303 300 300 301
323 323 321 321 323 328 330 330 331 331 330 329 325 323 323 323 322 321 321 320 318 317 315 309 308 309 309 308 308 308 308 309 308 308 308 308 307 307 306 305 304 302 300 300
318 318 318 319 319 322 329 330 331 330 329 327 324 323 323 322 322 321 320 318 317 315 309 309 310 310 310 309 309 309 309 309 309 309 309 308 308 308 307 306 305 303 301 300
321 316 316 318 319 321 324 324 327 330 329 326 324 323 323 322 322 321 320 317 314 311 310 311 311 311 311 311 310 310 310 310 310 310 310 309 309 309 308 307 307 305 303 300
322 321 316 316 319 321 322 322 324 327 327 326 324 323 322 322 322 320 318 314 310 311 312 312 313 314 314 314 314 313 312 311 312 312 311 311 311 310 310 308 307 306 305 303
320 322 320 318 318 320 322 325 326 327 326 325 325 323 322 321 321 318 315 313 313 313 314 314 315 315 315 314 314 314 314 313 309 310 310 311 311 311 311 310 307 306 305 305
320 322 319 318 319 321 324 324 323 323 324 325 325 322 322 321 320 316 315 315 315 316 318 318 317 316 313 314 314 310 309 310 309 308 308 310 310 311 311 311 309 308 307 306
321 322 319 321 321 323 323 324 323 322 323 324 325 323 322 322 319 318 317 315 316 318 317 316 316 315 313 310 309 311 312 311 309 307 307 309 311 310 308 306 306 307 309 309
319 319 322 323 323 322 322 322 322 323 324 324 324 323 323 322 319 318 317 317 317 315 314 316 313 311 311 311 311 310 307 305 306 307 307 307 306 306 306 305 305 305 306 307
323 322 320 320 320 320 320 321 321 322 322 322 321 321 320 319 318 317 317 317 315 315 314 312 311 313 310 308 307 306 305 305 306 306 306 305 305 305 304 304 303 303 304 305
320 319 320 320 320 320 321 321 320 319 319 318 317 317 317 317 317 317 315 316 316 314 313 313 311 311 310 308 308 307 306 305 305 304 304 304 304 304 303 303 303 303 302 302
318 319 320 320 319 318 318 317 317 316 317 316 315 315 315 314 313 313 314 313 313 313 313 311 310 310 309 307 307 306 307 306 305 304 304 304 303 303 302 302 302 302 302 302

GFSNGP_850_thetae_015.txt.gz
Theta_e
327 324 324 329 333 326 331 335 334 336 332 338 337 338 341 347 349 346 337 348 338 335 336 342 340 341 341 342 339 339 340 340 338 336 337 336 336 333 332 332 332 332 332 332
332 331 325 326 328 332 331 329 331 333 335 333 334 337 341 346 348 349 345 346 344 336 340 343 342 342 341 341 341 339 340 340 340 338 337 337 335 332 332 331 332 332 331 331
330 332 333 334 332 334 334 334 335 337 338 336 338 338 342 346 348 348 346 345 344 343 343 343 342 342 342 342 341 340 339 341 342 340 338 337 335 332 332 332 331 330 330 330
331 334 334 330 331 333 335 339 338 342 339 337 338 337 338 343 347 347 346 343 342 342 343 343 342 342 343 343 343 341 340 340 341 342 339 338 336 333 332 332 330 328 327 328
335 334 331 334 339 342 340 340 342 339 339 337 337 337 337 336 343 344 343 344 343 343 343 343 343 341 340 341 340 339 341 341 341 342 340 339 337 333 333 331 329 327 327 326
336 334 332 333 341 341 342 336 338 339 340 338 336 340 341 335 336 342 342 342 342 342 342 341 340 338 335 330 327 327 328 329 336 340 341 340 337 334 333 332 329 326 325 326
334 338 336 332 340 339 338 336 341 340 340 338 338 338 335 334 336 338 338 339 341 340 339 338 334 329 327 328 329 330 330 330 333 336 338 338 337 334 334 333 330 328 326 326
331 334 337 338 341 339 343 344 341 342 341 340 335 332 334 332 333 334 335 337 336 336 334 332 328 328 329 330 330 330 331 331 331 334 337 337 336 335 334 333 330 328 327 327
330 330 336 337 339 339 339 340 341 342 339 337 335 333 334 332 330 330 333 334 334 332 330 327 327 328 329 329 329 330 330 332 330 332 333 334 333 334 332 331 328 326 327 325
338 336 337 337 338 337 338 341 340 340 339 337 334 333 332 331 331 332 333 332 330 327 326 325 326 327 327 328 327 327 328 329 329 329 330 330 326 325 325 326 324 324 323 322
337 335 335 336 336 336 337 337 337 338 336 335 335 333 332 332 332 331 330 328 326 325 325 325 325 326 325 326 326 326 326 326 326 326 325 325 323 323 322 322 321 322 320 320
337 332 335 335 333 334 337 337 335 336 336 336 335 335 334 333 332 329 327 325 325 325 325 325 325 325 325 324 325 325 325 323 322 323 322 321 322 321 322 320 321 318 318 317
330 330 332 332 334 333 332 334 336 336 337 337 335 334 331 331 330 327 324 324 324 324 324 324 324 323 323 323 323 322 321 319 318 317 316 316 316 316 317 316 315 315 314 314
324 328 332 332 332 332 334 334 334 334 334 335 335 333 332 330 326 323 324 323 323 323 322 321 321 321 320 319 318 313 306 303 303 303 302 301 300 299 300 303 305 305 306 305
320 322 325 324 328 330 330 333 333 334 333 332 332 332 330 326 323 322 322 322 321 320 320 319 319 317 314 308 305 306 307 307 306 306 305 305 306 305 304 300 299 299 301 303
317 322 325 324 325 328 329 330 332 332 333 332 330 327 325 323 322 321 321 321 320 319 319 316 309 306 305 306 307 308 308 308 308 308 308 307 307 306 306 304 302 300 302 302
321 325 325 322 324 326 326 330 331 332 332 330 327 325 323 323 322 321 321 320 320 319 315 308 307 306 307 308 309 309 309 309 309 308 308 308 307 307 306 306 304 301 301 300
320 320 319 318 319 319 322 329 330 331 330 329 327 323 322 323 322 321 320 319 318 315 309 308 308 308 308 308 309 309 309 309 309 309 309 309 308 308 308 307 306 305 301 300
320 319 318 317 316 317 319 323 328 329 330 328 326 323 323 322 322 320 320 318 315 311 308 309 310 309 309 310 310 310 310 310 310 310 310 310 310 310 309 309 307 306 305 302
319 320 319 316 316 315 318 321 324 325 327 328 325 323 322 322 322 320 320 317 316 314 310 310 311 311 311 311 311 311 311 311 311 313 313 312 311 311 311 310 308 307 306 305
317 319 321 321 318 316 318 320 321 323 326 326 324 323 322 322 321 321 319 315 311 311 311 312 312 313 313 313 314 314 314 314 314 312 310 309 309 310 311 311 310 308 306 305
317 319 321 321 318 318 319 323 325 325 325 325 324 323 322 321 321 320 315 311 311 312 312 314 314 314 315 313 313 312 310 309 309 308 308 306 306 308 310 311 310 310 309 309
319 320 321 319 319 321 323 324 324 324 324 323 324 322 322 321 321 318 316 315 314 314 314 316 317 316 313 311 309 310 311 310 309 308 308 308 308 309 308 306 306 305 305 305
321 319 321 322 323 322 322 322 322 322 322 323 324 323 322 322 320 318 316 315 315 317 317 316 315 316 313 310 308 307 306 305 305 305 305 306 306 305 305 305 305 305 304 304
320 320 321 320 320 320 321 321 321 322 323 322 322 322 321 320 319 318 317 316 317 317 315 314 314 313 313 307 306 307 307 306 306 305 305 304 304 304 304 304 304 304 303 303
319 320 319 319 318 319 320 320 320 321 321 319 318 318 318 318 317 317 317 316 315 315 315 314 312 311 308 309 308 307 307 307 305 305 304 304 304 304 304 303 303 303 303 303
318 320 319 319 317 319 319 318 318 317 317 317 316 316 315 314 314 315 315 314 313 313 312 310 310 309 308 306 305 306 306 306 306 304 304 304 303 303 303 303 303 303 302 302

GFSNGP_850_thetae_021.txt.gz
Theta_e
331 329 329 330 330 331 331 332 334 335 338 337 341 341 344 346 350 352 353 350 353 352 350 341 337 344 348 347 346 347 347 346 346 346 346 344 341 338 337 337 333 330 333 338
333 330 329 329 329 329 331 331 333 334 337 333 341 342 341 348 351 350 350 350 353 349 346 346 348 350 348 348 348 347 346 346 346 346 346 344 341 337 340 333 332 329 329 330
334 330 329 331 330 329 330 333 333 334 336 339 339 344 344 347 351 350 348 350 352 347 347 349 350 350 350 349 349 347 347 348 347 347 346 345 342 341 337 332 332 329 326 329
334 333 332 332 332 332 330 330 332 333 336 341 345 344 345 347 351 351 349 351 349 346 350 351 351 350 349 347 346 348 348 347 347 346 347 346 344 343 337 333 332 330 327 328
331 332 331 331 332 332 331 332 333 333 336 342 343 345 348 350 350 352 350 351 349 349 350 348 347 346 347 347 347 346 344 338 338 341 343 345 342 342 339 335 332 330 330 330
330 331 333 332 334 335 334 337 336 340 340 341 341 334 352 351 355 355 354 352 350 346 342 341 341 342 343 342 340 337 334 329 327 328 336 342 343 340 338 336 332 330 330 327
327 329 330 331 340 340 336 342 348 346 344 341 343 351 350 350 350 349 347 346 343 341 341 338 341 341 340 337 334 329 328 329 329 329 331 339 339 339 337 334 332 330 328 326
327 328 328 335 338 339 350 348 349 349 347 351 350 345 343 342 341 341 341 340 342 339 335 338 340 338 335 331 329 329 329 329 330 330 332 335 336 336 335 331 331 330 327 324
330 329 342 341 346 347 347 348 350 349 347 348 343 341 336 336 336 338 340 340 339 335 336 337 336 334 330 329 329 329 329 330 330 331 332 334 333 331 331 329 331 330 328 326
332 332 339 340 343 345 346 347 348 348 347 344 343 338 334 334 334 335 337 336 334 333 330 334 331 328 328 328 328 328 329 329 331 329 330 331 330 328 327 327 326 326 326 325
331 339 337 341 341 342 345 346 346 347 346 345 342 337 335 334 333 332 333 332 332 330 327 326 326 327 327 327 327 327 328 327 328 328 328 327 326 325 324 323 324 323 323 323
337 337 338 340 340 340 342 343 344 344 342 342 339 336 334 332 331 331 331 331 328 325 324 325 324 326 326 326 325 324 323 323 325 325 323 323 323 322 322 321 321 320 320 320
330 333 336 337 338 339 340 340 342 341 340 339 336 334 333 333 330 331 327 325 325 324 324 324 323 325 324 324 323 323 324 324 322 319 319 318 319 319 320 318 318 318 318 318
327 328 333 332 334 335 338 338 338 338 336 335 333 332 331 331 329 329 327 325 323 324 324 324 323 322 323 322 322 322 320 319 318 316 315 315 316 317 316 315 313 312 314 314
325 326 327 330 331 333 334 337 337 338 335 335 334 333 332 331 331 328 327 327 327 326 325 325 324 323 323 321 316 312 311 310 310 309 309 309 309 309 309 310 310 309 306 305
323 324 325 326 330 329 330 333 335 335 335 334 334 333 333 332 330 326 326 326 325 325 324 323 323 320 314 312 312 311 310 309 310 310 310 310 311 310 309 309 309 308 308 308
322 323 322 326 328 324 326 328 332 333 334 334 334 332 331 330 327 325 325 325 324 324 324 323 318 313 313 312 311 310 310 310 311 312 312 311 311 311 310 310 308 307 308 307
322 322 323 324 325 325 323 323 324 332 332 332 330 329 329 328 326 326 325 324 323 323 320 317 314 313 313 313 312 312 312 312 313 313 313 313 313 313 312 311 310 309 308 306
320 321 322 322 324 324 324 323 324 329 332 329 328 324 324 326 326 325 323 323 323 319 316 314 311 313 314 313 314 313 313 313 314 314 315 314 315 315 314 313 312 312 310 309
320 321 321 322 322 323 324 322 323 326 327 330 329 329 328 328 326 324 322 322 321 318 314 312 311 314 315 313 313 315 314 315 316 316 316 315 315 315 314 314 314 313 312 312
320 321 321 322 323 323 324 323 322 327 328 330 330 329 328 327 324 324 323 323 320 316 315 309 315 316 316 314 313 316 316 317 316 316 314 314 314 315 314 315 313 313 313 312
319 320 321 322 324 325 326 323 322 325 326 330 329 328 327 325 324 323 323 321 318 315 314 313 317 317 317 316 316 316 316 315 314 314 314 314 313 314 314 313 313 313 312 312
317 320 321 322 324 326 326 325 325 328 329 329 327 327 325 324 324 324 322 321 320 316 317 316 317 317 317 315 313 313 312 312 311 311 311 310 311 312 311 310 309 309 309 309
317 320 320 325 327 328 329 328 327 330 329 327 326 326 324 325 323 323 321 319 317 316 315 316 316 316 314 311 311 310 309 309 310 312 310 309 309 308 308 308 307 307 307 307
318 319 322 323 323 324 325 324 321 323 322 324 324 324 323 322 321 319 318 317 316 316 315 315 315 314 312 310 309 311 312 311 309 307 307 308 308 307 307 306 306 306 306 307
321 321 320 321 321 321 322 322 322 323 323 323 322 322 321 321 320 317 315 314 315 316 315 316 315 314 313 312 311 309 309 309 309 309 308 308 308 308 308 307 307 306 307 306
319 319 320 321 320 321 321 321 318 318 319 319 318 318 318 317 317 316 316 315 315 315 313 312 311 310 309 309 308 308 308 307 306 305 306 306 306 306 305 305 305 304 303 302

GFSNGP_850_thetae_024.txt.gz
Theta_e
330 330 331 332 333 331 331 331 333 333 338 339 338 336 336 339 351 353 353 352 353 351 352 350 347 339 346 346 346 347 348 347 346 344 344 343 342 341 334 334 331 327 335 334
332 331 331 330 329 329 329 330 332 331 335 336 334 331 335 336 351 354 354 353 354 354 351 346 341 346 348 347 348 348 348 347 346 346 344 343 342 340 338 332 330 333 330 329
334 332 332 332 330 329 330 330 330 333 339 339 339 337 338 348 352 352 353 353 354 352 346 341 346 351 348 350 350 348 348 344 347 345 344 343 344 341 339 333 333 329 328 326
336 335 334 332 332 332 334 332 330 333 340 337 331 332 335 344 351 351 351 353 353 348 347 349 350 351 351 350 349 350 348 346 347 348 346 345 345 343 341 337 333 330 327 324
336 333 332 331 333 334 335 333 344 344 342 337 337 332 347 348 350 351 350 355 349 349 352 352 352 351 350 348 348 347 346 344 341 341 343 344 344 343 341 340 334 332 329 328
332 331 332 334 331 334 337 336 347 338 334 332 331 337 354 358 358 354 353 352 349 350 351 349 348 345 347 346 345 344 342 340 330 328 331 340 341 340 339 338 334 332 330 327
330 329 329 331 330 338 346 351 348 341 335 335 335 338 354 356 354 355 353 351 350 349 348 346 343 343 344 342 340 338 331 328 329 330 334 337 337 337 336 336 333 333 330 327
331 331 329 327 335 344 351 349 349 348 346 352 349 349 351 347 347 347 346 345 344 342 340 339 338 339 340 338 333 329 329 329 330 330 331 337 335 335 335 333 332 331 327 329
332 332 342 344 348 348 348 349 349 349 348 349 346 344 342 341 341 343 343 341 340 338 337 336 336 336 334 330 329 329 329 329 330 330 331 333 333 334 333 331 331 330 328 328
335 337 342 343 344 344 346 348 347 347 347 346 344 340 338 339 340 340 339 338 336 334 334 332 331 331 329 328 328 328 328 329 330 330 330 331 331 331 330 329 328 327 326 326
334 339 341 342 341 341 343 345 347 348 348 347 343 340 338 336 337 337 336 335 335 334 331 331 329 328 327 327 327 328 328 328 328 328 328 328 328 327 327 326 325 325 324 323
343 337 340 340 340 340 341 341 343 345 345 344 341 339 336 334 333 334 335 333 332 332 332 327 326 327 326 326 326 325 324 325 325 325 325 324 324 324 324 323 323 322 322 321
332 331 332 336 336 338 338 339 342 342 342 340 338 336 334 332 332 333 333 332 331 328 325 325 325 325 325 326 325 324 325 323 322 321 320 319 319 318 317 319 320 319 319 319
328 329 331 334 333 333 334 337 339 339 337 336 335 334 334 333 332 332 329 328 326 325 327 325 325 326 327 325 324 324 323 323 322 320 319 319 319 318 317 315 313 311 314 315
325 326 327 327 330 331 332 333 337 339 337 336 334 333 333 332 331 329 328 328 327 326 325 324 324 323 323 325 323 315 313 313 312 311 311 311 311 311 311 311 312 310 308 305
323 323 325 325 326 329 329 331 333 337 337 335 335 334 334 333 331 329 327 326 326 326 325 324 323 323 322 315 313 313 312 311 311 311 312 312 312 311 311 310 310 310 310 309
322 321 323 324 327 328 327 328 329 331 335 335 333 334 333 332 329 327 326 325 326 325 324 323 323 317 314 314 312 311 311 312 312 313 313 313 313 312 312 311 310 309 309 308
320 321 321 321 322 326 326 326 325 326 328 333 334 332 331 330 328 326 325 325 324 324 323 322 317 315 314 313 312 313 313 314 315 314 314 314 313 314 314 313 312 311 310 309
321 320 320 321 321 323 324 324 325 325 325 323 331 331 330 328 327 325 325 325 324 323 322 318 315 315 314 314 314 315 314 315 315 315 316 315 316 316 315 315 314 314 313 311
320 321 321 320 321 322 323 324 325 325 328 330 328 325 326 329 325 324 324 323 323 322 319 316 313 315 315 314 314 316 315 316 316 316 316 316 316 316 316 314 314 315 314 313
319 320 321 322 321 322 323 323 324 325 324 325 326 328 328 330 327 325 323 323 323 320 318 313 314 316 316 314 315 316 317 317 317 316 315 315 316 316 315 314 314 314 314 314
317 318 320 320 322 323 324 325 325 324 327 324 325 323 328 328 327 325 323 323 319 318 316 313 317 317 317 314 315 316 317 316 314 314 314 313 313 313 313 312 312 311 310 311
317 317 319 321 322 324 324 325 327 325 324 327 326 329 327 326 325 323 323 319 319 316 313 316 317 318 317 316 314 314 313 313 313 311 311 312 313 311 310 309 309 308 309 308
316 317 318 321 323 323 324 318 325 326 327 330 329 327 325 324 324 324 322 319 316 316 315 315 317 318 317 315 313 312 313 311 310 312 313 313 309 308 309 308 308 308 307 308
317 318 320 322 323 323 316 320 322 322 322 323 325 324 324 323 323 320 320 317 316 316 316 316 316 316 315 315 313 312 312 311 312 311 308 308 308 309 308 308 308 307 308 307
319 320 321 321 322 322 322 322 321 321 321 322 323 323 321 321 321 320 318 318 316 316 315 314 314 315 314 313 311 309 309 309 308 309 308 308 308 308 307 307 306 306 305 305
320 320 320 320 321 321 320 320 320 321 321 321 321 320 320 319 317 315 315 315 315 315 315 315 313 312 310 308 309 310 308 307 306 306 307 307 306 306 305 304 304 303 303 302

GFSNGP_850_thetae_027.txt.gz
Theta_e
330 329 328 329 331 332 330 330 330 327 337 338 336 335 335 333 336 342 352 351 349 349 348 349 348 346 347 348 346 346 346 345 345 344 344 342 341 338 333 332 329 332 329 330
332 331 330 331 330 331 329 328 328 334 340 333 336 332 333 335 336 338 348 352 350 349 349 348 346 344 347 346 347 347 347 346 346 345 345 344 342 341 337 332 335 329 326 328
330 332 331 331 331 332 332 333 333 329 336 335 335 338 333 331 333 338 346 353 352 350 350 348 340 346 349 347 348 348 346 347 346 346 345 343 342 341 340 335 337 329 325 326
336 336 338 331 331 332 334 342 340 337 336 334 333 336 337 334 334 339 342 354 353 352 351 339 347 349 349 348 349 349 347 345 344 345 345 344 343 343 340 340 334 331 326 326
333 334 333 332 333 334 337 344 340 339 338 335 336 333 332 333 349 344 348 354 353 348 341 348 351 350 349 350 349 348 344 343 344 342 342 345 344 343 343 340 336 333 330 326
330 335 334 331 335 334 335 348 337 335 338 333 334 335 333 333 353 354 354 352 348 347 348 350 347 350 350 349 347 345 344 343 338 328 328 342 343 343 340 339 335 333 331 328
329 331 328 328 327 332 333 341 336 336 335 333 334 336 340 352 352 351 350 349 349 349 350 348 346 348 347 346 345 344 341 332 329 328 329 335 338 338 338 336 334 333 332 329
328 330 330 342 342 348 336 334 344 337 333 340 332 335 350 351 350 350 349 349 349 347 345 344 344 343 343 344 342 337 330 329 329 329 331 336 335 335 335 334 334 332 332 328
325 327 348 347 347 347 348 348 348 347 349 348 346 345 345 345 345 345 346 346 344 343 341 338 339 340 341 339 333 329 329 329 329 330 330 333 331 333 334 333 333 331 330 328
334 339 339 341 342 344 346 347 347 348 346 346 343 340 340 341 341 342 342 340 339 339 337 336 338 337 334 331 329 328 328 328 329 329 329 330 330 330 330 330 329 328 327 327
340 337 338 334 332 335 341 343 345 345 344 343 340 338 338 338 339 338 338 337 337 336 336 335 333 330 328 327 327 327 327 328 328 328 328 328 328 327 326 326 326 326 325 324
337 334 338 338 335 328 339 342 343 344 343 341 340 338 337 336 336 336 336 336 334 333 331 330 328 327 326 326 325 325 326 326 326 325 324 324 324 324 324 324 324 323 323 322
332 330 329 334 337 335 338 339 341 340 338 337 339 337 335 333 333 333 333 333 331 331 331 327 325 326 325 324 324 324 324 323 320 319 318 316 315 315 314 317 318 320 320 320
327 326 329 332 331 330 331 339 338 338 335 334 335 335 334 333 332 331 331 331 328 329 328 327 325 325 326 325 324 323 322 322 320 319 317 313 316 315 313 312 310 308 305 307
325 325 326 326 329 330 330 331 335 338 336 334 334 335 334 333 331 330 328 327 326 325 325 325 324 326 326 325 321 315 315 313 313 311 311 310 312 313 312 310 310 310 309 308
323 322 322 323 325 325 328 331 331 334 336 335 334 333 333 332 330 328 327 326 326 325 324 323 323 324 324 315 314 313 312 311 311 312 312 311 311 311 310 309 310 309 309 307
321 321 322 323 322 324 328 327 328 327 331 333 335 334 334 333 330 328 326 326 326 325 324 323 323 323 314 313 312 312 311 312 312 313 312 312 312 312 311 310 309 310 309 309
320 320 321 320 321 322 322 324 326 327 325 326 329 332 332 330 330 327 326 325 325 324 324 323 323 314 313 311 311 312 312 313 314 314 313 314 314 313 314 313 313 312 311 310
321 321 321 321 321 321 322 323 323 324 326 325 329 331 330 330 328 327 326 325 324 324 323 323 317 313 312 312 313 313 314 314 314 315 315 315 316 316 316 315 315 315 313 312
320 320 320 321 321 322 322 323 324 323 326 326 325 325 328 329 327 325 325 325 324 323 322 319 314 313 313 314 314 316 316 315 316 316 316 316 316 316 316 315 315 315 314 314
318 318 318 320 320 321 322 324 324 325 322 326 326 325 325 326 327 325 324 324 324 323 320 316 314 315 314 314 315 316 317 317 316 316 315 315 315 314 313 314 313 313 312 312
318 318 318 317 317 320 320 321 324 325 325 326 324 323 322 324 322 326 324 323 322 320 318 313 314 315 314 314 314 316 317 317 315 314 314 313 313 312 311 310 310 309 309 309
316 317 317 316 317 319 321 321 321 321 323 326 324 324 325 324 325 325 323 323 320 317 312 316 316 317 317 315 316 316 315 314 313 313 313 312 312 313 311 311 309 308 307 308
316 316 316 316 317 319 320 321 321 321 321 324 325 323 323 325 325 324 322 319 316 312 315 317 317 317 317 317 315 314 314 314 313 312 312 312 311 309 308 308 308 307 307 307
316 316 317 319 320 321 320 316 317 318 317 316 322 319 322 324 324 323 319 316 316 315 314 316 316 316 316 314 313 313 313 313 313 311 308 308 309 308 308 308 307 307 307 307
318 319 321 321 322 322 319 317 317 319 318 320 320 323 322 321 321 318 318 318 316 316 316 316 315 315 314 314 313 312 309 308 308 307 308 308 308 307 307 307 307 306 306 305
321 320 319 321 321 320 320 319 320 319 320 321 322 319 319 319 319 319 317 316 316 316 315 314 314 313 310 309 309 308 307 306 306 307 307 307 307 306 306 305 304 303 302 301

GFSNGP_850_thetae_030.txt.gz
Theta_e
326 328 327 328 329 328 328 327 328 328 329 331 333 332 338 332 331 330 331 335 344 348 348 348 348 343 339 346 347 347 346 342 344 343 344 341 339 338 333 329 326 327 328 327
325 330 329 330 329 329 330 333 328 333 335 333 333 333 337 335 339 339 343 350 348 349 348 348 348 344 346 348 347 347 346 345 345 345 344 343 341 340 337 332 330 326 326 326
324 329 331 328 328 330 333 337 335 331 329 332 335 332 334 339 335 339 346 350 349 348 349 348 347 346 346 346 347 346 346 346 346 345 345 344 342 341 339 339 336 329 325 326
331 330 334 329 329 340 342 341 338 336 334 332 334 334 338 336 332 332 337 348 348 348 347 346 344 347 347 346 347 347 346 344 346 345 345 344 342 342 340 340 338 332 326 326
328 329 328 329 335 335 337 341 337 339 337 335 336 332 333 332 331 331 336 339 348 349 347 342 345 348 347 346 346 342 342 343 343 343 345 345 343 342 342 340 338 334 330 325
324 328 330 326 333 334 335 340 335 336 337 336 335 335 333 333 341 332 335 345 350 349 344 341 343 343 341 340 341 341 342 342 342 339 331 337 341 341 341 338 336 333 333 327
324 326 325 325 326 332 333 328 334 333 332 335 335 334 334 338 351 349 349 349 350 346 342 342 342 342 335 336 340 340 342 341 335 329 328 334 340 338 339 336 334 333 333 331
322 326 326 342 342 337 334 340 333 331 331 333 334 333 340 342 350 349 350 349 348 347 347 345 345 342 337 338 342 342 340 333 329 328 328 336 335 336 334 334 334 333 331 330
320 321 336 338 340 344 339 339 337 331 333 338 335 334 346 346 349 348 348 347 347 347 345 343 342 342 343 342 341 338 332 328 328 329 331 334 336 332 333 332 333 333 331 328
334 336 332 335 338 341 342 343 343 342 337 335 339 337 343 344 344 344 344 343 342 341 338 337 337 338 338 337 332 330 328 328 328 329 329 330 330 332 331 333 332 329 328 327
333 334 335 331 333 331 336 334 328 341 341 342 342 341 342 342 342 342 340 339 338 337 336 336 334 333 332 330 328 327 327 328 328 328 329 329 328 328 329 329 328 327 326 326
333 332 335 335 332 332 341 340 340 338 339 340 338 338 339 339 339 339 337 337 335 333 332 331 329 329 328 326 326 326 327 326 326 326 326 326 326 326 325 324 324 324 323 323
330 330 333 335 332 334 336 338 337 336 335 335 338 338 336 337 336 335 335 334 333 331 331 330 329 327 324 325 324 325 325 322 319 317 315 313 313 314 310 313 320 321 320 320
325 327 327 330 330 330 333 335 336 336 335 334 333 335 334 334 333 333 332 332 331 330 328 328 327 327 326 324 323 321 319 318 316 313 315 314 311 310 310 309 305 305 302 302
324 323 323 324 324 326 329 330 331 331 334 333 333 333 334 333 332 332 331 331 329 328 324 323 325 324 325 324 322 321 320 315 313 311 312 312 311 310 309 309 309 306 306 305
323 322 322 322 324 326 327 329 330 332 333 334 333 333 332 333 332 331 329 328 327 325 324 323 323 323 324 323 319 315 312 311 311 310 311 311 311 310 310 310 310 309 309 308
322 321 321 321 321 321 322 322 324 327 328 328 328 330 333 332 331 329 328 326 325 324 323 323 322 323 321 314 313 312 311 311 311 311 311 311 312 312 311 310 311 311 310 309
321 321 321 321 321 320 321 322 323 323 325 326 327 329 330 332 332 330 328 325 325 324 323 323 323 317 313 312 312 312 311 312 313 312 313 313 313 313 312 312 311 312 311 310
320 320 321 321 321 321 322 323 324 324 323 324 325 325 328 329 329 329 326 325 325 324 323 323 319 313 311 311 312 312 312 313 314 314 314 315 315 316 316 314 314 314 313 311
319 319 319 319 320 320 321 321 324 324 324 324 325 325 325 325 327 327 326 325 324 323 323 323 315 313 312 312 313 313 314 314 314 316 316 316 316 316 315 315 314 315 314 313
318 318 318 317 317 318 318 319 320 322 324 324 325 326 324 324 327 325 325 325 324 324 323 321 314 314 314 314 317 316 315 315 316 316 316 315 315 314 313 313 312 311 313 312
314 315 316 317 318 317 317 317 319 320 321 323 324 324 324 324 324 325 323 324 324 323 320 317 314 314 314 314 315 317 317 317 316 316 315 314 313 310 311 311 311 309 309 310
315 316 316 316 316 315 315 317 320 320 320 318 322 322 320 322 323 324 323 323 324 322 318 315 315 315 314 314 314 316 316 316 314 313 313 313 313 312 313 312 311 310 308 308
316 316 316 316 316 317 318 318 320 319 318 320 321 322 323 324 323 323 324 323 321 317 314 315 316 316 316 314 315 315 314 313 313 313 312 312 312 312 313 311 309 308 307 307
317 316 316 317 317 319 320 318 317 317 316 316 318 322 321 322 323 323 323 319 316 314 314 317 317 317 316 315 314 314 313 314 314 313 312 310 309 309 308 308 307 307 307 307
317 318 320 320 320 320 319 316 316 318 318 317 318 319 319 319 320 322 319 316 314 313 316 316 315 314 314 314 314 314 313 311 309 308 308 309 308 308 307 307 307 306 305 304
320 320 321 321 320 319 320 318 317 318 319 319 318 319 319 319 318 314 314 315 315 314 314 314 315 315 314 312 309 308 308 308 307 307 307 307 307 306 306 306 305 304 302 301

GFSNGP_850_thetae_033.txt.gz
Theta_e
323 325 326 327 329 327 327 324 327 326 326 327 331 333 337 333 333 333 332 335 345 349 350 347 347 342 331 332 333 340 340 344 341 342 342 341 340 338 334 330 326 324 326 325
325 328 328 329 327 328 331 335 329 332 332 328 332 335 335 333 335 340 341 335 335 343 344 347 347 347 335 340 344 345 343 342 342 344 344 342 340 340 337 333 331 326 324 325
322 328 326 323 329 332 338 338 336 329 329 332 331 333 334 335 336 335 335 343 337 335 333 344 345 345 338 344 346 346 346 345 344 343 342 341 340 340 338 337 335 331 326 325
327 326 324 324 336 335 340 340 336 333 332 333 332 332 334 335 337 337 339 341 347 338 337 345 336 343 339 344 345 345 345 345 344 341 342 341 339 341 340 338 337 333 330 326
326 326 325 334 338 333 334 340 337 335 334 336 335 333 333 334 333 338 333 341 347 340 345 346 344 344 344 342 343 343 341 336 341 340 340 340 341 341 340 339 339 335 331 326
322 326 328 325 330 335 329 328 337 336 334 335 334 331 333 336 342 338 342 334 336 347 348 345 346 345 342 337 335 333 335 339 340 339 340 341 341 340 340 338 336 335 332 328
324 324 323 322 332 332 326 322 336 336 334 335 333 333 333 335 340 343 345 346 345 347 346 345 343 344 338 337 332 331 333 338 340 338 331 330 337 338 339 337 336 333 332 331
319 322 323 338 342 332 327 338 335 333 332 334 335 334 335 337 339 345 346 348 347 346 344 344 343 341 339 335 334 332 335 340 337 331 330 332 337 338 335 334 334 332 332 330
318 319 334 337 340 340 334 338 335 333 331 334 333 336 338 344 345 346 347 346 346 346 346 344 343 343 339 336 336 339 339 334 329 328 331 336 334 333 333 332 331 333 331 330
333 332 332 335 342 342 343 342 341 339 333 336 329 336 340 343 344 344 343 342 342 340 339 338 339 340 339 338 336 331 329 328 328 328 330 333 333 331 330 331 332 332 330 329
332 332 333 331 336 336 334 330 330 339 338 335 330 330 331 341 342 342 340 339 337 335 334 335 333 333 333 331 330 328 328 327 328 328 329 330 329 329 330 330 331 329 328 327
330 331 331 331 334 337 339 339 337 338 338 338 339 337 338 339 340 339 337 336 335 333 332 333 333 331 328 327 327 327 327 327 327 328 328 328 328 327 327 326 326 325 324 323
329 333 333 330 332 337 338 337 335 333 331 332 333 337 337 337 337 336 335 334 333 332 331 330 329 328 325 325 325 326 325 325 325 324 321 321 322 321 324 323 322 322 321 321
329 329 330 329 330 334 336 336 335 334 334 332 334 334 335 335 334 335 334 333 332 331 330 329 328 327 323 323 324 323 320 317 315 312 311 310 309 308 306 304 304 303 303 306
326 327 326 325 325 327 331 332 331 330 331 331 331 331 332 333 333 332 332 331 331 330 329 327 325 324 324 324 321 318 316 313 314 313 311 310 309 308 308 307 309 308 306 304
323 323 323 323 323 327 329 330 330 329 330 331 330 330 330 331 332 332 331 331 330 329 327 325 323 322 322 322 321 319 316 314 311 311 311 310 310 310 310 309 309 309 310 310
321 321 321 321 321 320 321 321 322 324 328 327 325 326 327 329 331 331 330 329 328 327 325 324 323 322 322 322 319 315 313 312 310 311 311 311 311 312 311 311 311 310 309 309
321 321 321 320 320 319 320 321 322 323 325 325 326 327 327 328 328 331 330 328 326 325 324 323 322 322 322 321 315 312 311 311 311 311 311 313 313 313 313 314 314 312 311 309
319 320 320 320 320 320 321 321 321 322 323 323 323 325 325 325 325 328 329 328 325 324 324 323 323 321 317 312 311 311 311 311 312 312 313 314 313 313 314 315 314 314 314 311
318 318 318 317 317 318 319 320 321 323 323 323 323 323 325 324 323 326 328 327 325 324 324 323 323 315 313 311 311 311 312 313 313 313 314 315 315 315 315 315 315 314 314 314
315 314 314 314 316 317 317 317 317 319 321 323 324 323 323 326 324 324 327 326 324 324 323 322 320 313 313 313 313 312 313 314 314 314 315 316 316 315 315 315 314 314 313 313
313 315 315 315 314 314 315 316 316 316 316 319 321 322 323 324 324 324 325 324 325 324 323 323 317 313 313 313 316 315 315 315 314 315 315 315 314 315 314 312 311 311 311 310
316 315 316 316 316 316 316 316 316 315 316 318 319 318 319 322 323 324 323 323 324 324 323 319 319 313 314 314 316 317 316 316 316 315 314 313 313 312 311 312 312 312 311 309
317 318 316 315 315 315 316 318 318 318 320 319 318 319 320 322 322 323 323 323 323 323 320 316 314 315 314 314 314 315 316 315 314 313 313 313 314 314 313 312 311 309 308 307
319 317 316 317 317 318 318 319 317 317 316 316 316 318 323 323 321 323 323 323 323 322 318 314 315 315 314 314 314 314 313 312 312 313 314 314 313 310 309 308 308 307 307 307
318 318 319 320 319 318 317 320 317 317 318 318 317 317 321 322 322 323 323 323 321 316 314 314 316 315 313 313 313 313 315 315 314 313 310 309 308 308 308 307 307 307 306 305
319 320 320 319 317 317 317 317 316 317 318 318 318 317 319 321 320 321 322 318 313 314 315 314 312 312 313 313 314 314 312 310 308 307 306 306 306 306 306 306 305 304 303 300

GFSNGP_850_thetae_036.txt.gz
Theta_e
321 322 324 325 326 324 325 322 326 326 322 323 324 329 332 335 332 334 336 339 348 349 348 345 345 346 347 343 339 332 337 341 339 342 342 341 339 338 334 330 328 324 325 325
326 327 327 327 327 326 329 325 325 329 327 322 331 331 335 334 334 336 335 336 338 340 347 345 344 340 342 339 339 333 334 342 341 342 340 340 339 338 336 333 332 329 325 325
324 328 323 323 328 332 337 337 334 329 327 330 330 332 334 334 333 334 335 337 341 337 343 342 337 340 336 333 334 336 343 342 342 343 340 339 341 338 338 336 335 332 328 325
327 323 323 321 334 332 337 338 335 332 332 332 331 332 333 334 335 332 333 333 337 341 340 340 335 333 334 337 337 338 343 343 343 343 341 340 340 339 338 338 336 334 330 326
324 322 324 336 337 332 332 335 335 332 334 335 334 333 332 336 333 332 340 335 337 347 339 340 340 334 336 339 338 334 341 342 344 339 338 338 339 339 339 340 338 336 331 328
321 326 328 325 328 333 323 323 335 333 333 335 335 331 328 333 334 343 346 339 337 340 344 341 344 341 338 341 339 340 338 340 340 340 340 340 340 340 339 339 336 335 332 330
324 324 323 321 328 332 323 322 330 334 333 334 332 332 334 338 341 345 346 345 344 343 344 345 342 342 338 340 341 341 338 334 338 338 339 338 339 342 337 339 334 335 332 332
319 321 322 336 340 328 323 335 336 335 332 333 334 336 338 341 346 345 345 346 346 346 346 345 343 342 339 342 341 337 333 332 332 337 334 330 332 338 338 336 336 334 331 331
318 318 330 335 338 339 334 336 334 333 331 332 333 339 343 342 343 343 342 344 344 345 344 344 343 342 340 338 337 335 334 334 337 335 331 330 333 335 338 332 335 332 331 330
331 331 331 334 340 342 342 341 340 335 331 336 331 339 341 343 343 342 341 341 340 339 339 340 338 339 339 338 337 337 337 336 331 329 329 333 333 332 332 333 331 331 331 330
332 331 331 332 335 335 331 330 336 341 334 336 334 337 339 340 341 341 338 337 336 335 334 333 334 334 334 334 334 334 330 328 328 328 331 330 331 333 329 330 330 331 329 328
329 329 330 331 334 336 338 337 337 338 337 338 338 338 338 339 339 338 337 336 335 333 332 332 332 332 332 331 329 328 327 327 327 328 328 327 327 328 329 328 328 327 326 324
331 332 332 332 335 337 338 335 333 330 328 329 328 329 332 335 336 336 335 334 334 333 332 331 331 330 327 327 326 326 326 326 326 327 327 327 326 326 326 324 323 322 322 320
331 330 329 330 335 336 337 335 334 334 333 332 331 329 329 330 332 332 333 332 332 332 331 330 328 327 325 324 325 325 325 324 321 318 317 314 310 310 313 317 317 315 316 317
329 328 327 328 329 332 333 334 333 331 330 330 331 331 329 329 330 331 331 331 331 330 329 329 328 326 324 323 324 322 319 313 311 310 309 308 305 304 306 307 304 303 303 303
325 326 325 325 326 328 330 330 329 329 329 330 331 331 330 329 329 330 331 330 330 330 329 328 327 325 324 323 321 317 315 314 311 310 309 308 307 308 310 310 311 311 309 308
323 322 322 323 324 324 324 324 324 324 324 326 326 326 325 325 326 327 328 330 329 328 327 325 324 323 322 323 320 318 315 312 312 311 310 310 310 311 310 310 310 309 310 310
320 320 320 320 320 320 320 320 320 321 321 322 324 325 325 325 323 324 327 331 329 327 326 324 322 322 322 322 321 320 316 313 311 311 311 311 312 312 312 313 312 311 310 309
320 320 319 319 320 320 320 320 321 321 322 322 322 323 323 324 324 325 326 328 329 327 325 323 322 322 322 322 320 316 313 311 311 311 312 312 313 313 313 315 314 314 313 312
317 317 317 317 317 318 318 318 319 320 322 323 323 323 321 321 322 324 323 324 327 328 325 324 323 322 322 322 314 312 311 311 311 312 312 314 314 314 315 315 315 315 315 314
314 314 313 313 313 313 314 314 316 316 317 318 320 322 323 322 322 324 324 322 324 325 324 325 323 322 318 313 312 311 311 311 312 312 312 314 315 315 315 315 315 314 314 313
313 313 314 315 315 315 315 315 314 314 314 315 316 317 320 322 322 323 324 323 324 324 324 324 323 321 314 313 312 312 312 312 313 313 313 313 315 315 315 314 313 311 311 312
314 315 316 317 316 315 315 315 315 316 316 315 315 314 315 318 319 322 323 322 322 324 324 323 323 316 314 315 313 313 313 313 314 314 315 315 314 313 312 312 311 312 313 312
316 318 318 317 315 314 315 316 316 318 317 317 319 319 318 318 319 319 321 321 323 323 324 323 323 317 315 313 316 316 316 316 315 315 314 313 312 313 314 312 312 311 310 309
317 317 316 318 319 319 317 317 318 316 316 317 317 316 316 317 321 321 322 321 322 323 324 322 320 320 316 313 315 316 316 315 315 313 312 313 313 312 310 308 308 308 307 307
319 318 319 319 317 316 317 316 318 317 317 317 317 317 317 317 321 322 321 321 322 323 321 315 315 315 314 314 314 315 314 313 313 315 314 312 308 307 307 307 307 307 307 306
318 318 318 317 316 316 316 316 316 316 317 317 315 314 314 317 317 318 321 321 322 320 315 314 314 313 313 313 313 312 312 314 312 309 306 305 306 306 306 306 306 305 304 303

GFSNGP_850_thetae_042.txt.gz
Theta_e
329 330 330 332 331 331 333 333 333 332 333 339 341 341 340 342 342 343 344 350 351 351 348 333 333 332 343 346 344 342 342 343 345 345 345 341 339 340 335 333 328 326 326 328
329 328 328 330 331 331 332 333 333 332 334 340 339 340 340 341 343 342 343 343 348 350 350 339 333 333 343 346 344 342 342 343 345 343 343 342 341 337 335 333 330 329 327 328
328 329 329 330 331 331 332 333 333 334 342 340 342 343 342 341 340 341 342 344 346 347 349 342 342 336 340 344 343 342 343 344 345 344 345 342 341 338 338 335 332 330 330 332
330 334 332 335 334 332 335 335 337 339 341 341 342 341 341 342 341 341 346 341 343 348 349 346 342 342 337 338 338 343 344 344 344 344 344 344 342 339 339 336 335 331 329 330
336 333 336 338 339 337 337 336 338 339 340 339 339 340 341 343 344 348 346 346 348 350 348 350 346 344 340 340 335 341 343 341 340 343 341 340 339 339 339 337 336 334 330 328
334 333 335 337 337 336 334 337 337 339 341 340 340 344 343 345 346 344 344 341 342 348 347 344 340 335 335 336 335 339 340 337 340 336 335 337 338 341 338 337 336 334 333 329
333 333 334 335 336 333 333 338 337 339 341 340 342 343 344 345 345 344 344 343 340 347 347 347 344 340 336 337 338 339 338 336 333 332 333 338 340 339 339 337 335 334 334 330
333 332 334 336 338 335 342 343 341 339 339 340 342 343 344 345 345 343 345 346 345 344 344 342 340 340 337 334 333 335 335 337 336 336 337 336 336 337 340 338 336 334 333 331
334 336 340 340 344 344 345 345 342 340 339 340 344 344 345 345 345 344 342 342 342 343 342 342 342 341 342 339 337 335 339 339 337 334 333 333 335 334 339 337 336 334 333 331
334 338 342 343 343 342 341 345 342 338 339 341 343 343 344 343 343 340 340 341 340 339 337 338 338 339 340 340 339 338 336 335 335 336 336 334 334 335 336 335 335 333 332 330
334 338 339 342 341 340 342 344 344 340 340 341 341 341 342 342 342 341 340 338 338 337 335 334 334 335 335 336 337 336 336 336 336 334 332 333 335 335 335 334 333 331 330 331
334 340 341 342 340 340 342 343 341 341 341 342 343 342 341 341 341 340 339 338 337 336 335 331 331 332 333 333 333 333 332 330 328 327 329 331 334 334 333 331 333 330 330 329
335 337 338 339 339 342 339 338 341 341 339 339 339 338 338 338 338 337 337 337 336 335 334 331 331 330 330 329 330 330 328 328 326 325 329 330 331 330 329 331 330 329 328 327
335 336 336 336 339 340 341 338 338 338 338 338 337 337 337 336 334 336 335 335 335 334 334 333 332 331 328 328 326 326 326 326 324 326 325 327 328 329 329 328 326 325 324 322
333 331 330 335 337 336 337 337 335 335 335 335 336 336 335 335 334 334 334 334 334 333 333 332 332 332 327 326 326 325 325 325 324 326 325 326 327 327 326 325 323 321 321 319
328 331 329 330 334 334 333 332 330 328 327 327 329 330 331 332 333 333 333 333 332 331 332 332 332 332 328 326 326 326 326 325 325 325 321 319 319 319 317 316 314 312 313 312
326 329 329 329 330 329 328 326 324 324 323 324 325 325 325 325 326 329 332 332 332 332 331 331 331 330 327 325 325 326 325 320 317 315 313 312 311 311 311 312 312 313 313 312
325 326 326 326 326 326 326 325 325 325 325 325 325 325 325 325 326 326 327 326 328 329 330 331 330 329 326 324 323 324 322 317 315 315 313 312 313 314 314 314 314 314 313 312
322 322 322 323 322 323 323 323 323 322 323 323 323 324 325 325 326 327 328 328 327 326 326 328 328 327 326 323 322 323 322 319 316 316 315 313 314 315 315 315 315 315 315 313
318 319 319 319 319 320 320 320 320 320 321 321 322 322 322 323 323 325 326 327 327 325 326 327 326 327 325 324 321 323 323 320 318 317 316 316 316 317 317 317 318 318 318 317
318 318 318 318 318 319 319 319 319 320 320 320 320 320 320 320 321 321 322 322 323 325 326 323 325 328 328 325 322 322 323 321 320 318 318 317 317 316 316 317 317 317 316 316
317 318 318 318 319 320 320 320 320 319 319 319 320 320 321 321 321 320 320 321 321 324 323 325 327 328 327 324 324 323 322 320 318 315 316 315 313 315 315 317 317 316 315 314
318 318 319 319 320 320 320 320 319 319 319 319 317 318 318 319 320 318 317 319 320 325 325 325 325 323 323 323 324 323 322 316 313 313 314 314 315 315 316 316 315 314 314 314
318 319 319 320 319 319 319 318 317 316 317 317 319 319 316 317 317 317 317 317 318 317 319 324 324 321 322 323 322 319 318 315 313 314 314 314 314 314 314 314 314 313 313 314
318 318 317 318 318 317 317 316 316 316 316 316 316 314 313 313 314 315 316 316 317 319 319 320 320 321 323 323 322 315 314 312 311 312 313 312 313 313 312 313 312 313 313 312
318 318 318 318 316 315 315 316 316 316 315 315 314 313 313 313 315 315 315 317 318 320 322 320 320 321 320 315 314 314 313 313 313 312 312 313 312 312 312 312 312 311 310 309
317 317 317 316 315 315 315 315 315 314 313 312 312 313 313 313 314 315 316 317 317 319 319 318 316 314 314 314 314 314 313 314 313 312 312 312 311 310 309 309 309 309 308 307

GFSNGP_850_thetae_045.txt.gz
Theta_e
330 330 332 332 333 332 331 333 334 335 336 337 342 342 342 347 348 346 346 349 353 354 354 353 341 347 349 347 345 340 346 346 346 346 344 343 342 341 340 339 338 337 336 335
330 330 330 331 332 332 331 332 333 333 338 335 338 342 343 344 345 345 346 347 351 352 354 350 342 347 349 347 346 342 342 344 347 346 345 343 342 343 340 338 339 338 337 336
332 330 330 330 331 333 332 333 334 335 343 341 343 344 344 344 343 343 344 345 346 351 353 351 345 346 348 349 347 346 344 345 346 344 344 345 343 344 341 340 339 337 337 336
332 332 331 330 331 331 332 333 333 341 341 342 345 344 345 345 344 343 347 344 345 351 352 350 346 347 348 348 346 346 345 345 345 345 344 345 345 343 340 339 337 333 336 335
333 332 331 335 334 334 333 333 335 340 341 341 342 344 344 345 347 351 350 351 351 353 350 351 346 348 345 343 341 342 341 341 343 344 346 344 345 342 343 340 338 335 334 335
334 333 335 333 335 334 333 337 337 339 340 340 341 341 347 346 349 348 347 347 349 352 352 352 350 347 345 342 339 336 332 340 344 343 346 344 338 342 341 340 338 336 335 335
335 334 335 338 338 337 339 340 338 338 338 338 341 348 346 349 346 343 343 345 349 351 349 349 347 345 344 342 336 334 334 342 342 340 339 337 337 340 341 340 338 336 333 332
333 336 339 336 338 338 342 341 337 337 339 342 346 345 347 348 346 344 344 344 343 346 347 347 346 344 346 344 339 337 337 337 337 335 338 335 338 341 341 340 337 336 333 332
336 342 341 343 348 346 346 342 340 340 341 343 343 344 347 348 346 344 344 344 343 341 342 342 341 341 344 343 338 334 336 336 336 336 336 337 339 338 341 339 336 335 332 332
336 337 342 341 343 344 345 345 341 340 341 342 344 345 346 347 346 344 344 343 343 342 341 340 338 340 341 341 340 338 338 338 337 336 333 333 335 337 338 337 335 333 332 332
331 336 337 341 343 343 345 346 341 341 341 343 343 344 345 345 345 345 343 342 341 340 339 336 334 334 335 336 338 338 337 336 335 335 335 335 333 333 335 336 335 334 333 331
341 340 339 345 344 344 344 343 342 342 343 344 343 344 343 343 343 342 341 340 339 338 337 335 334 334 332 334 335 335 335 334 334 332 333 333 333 335 336 334 334 333 331 330
336 337 340 341 342 343 341 342 342 343 343 342 341 340 340 340 340 337 339 338 338 338 337 336 336 334 330 330 331 331 332 330 330 330 329 330 332 334 334 334 332 332 331 329
336 337 338 339 341 342 340 340 340 340 340 339 339 338 337 337 336 336 336 336 335 335 335 335 335 334 333 329 325 329 328 328 329 329 328 328 330 332 330 330 331 330 329 328
331 331 332 338 338 339 339 338 335 334 335 336 336 335 335 334 334 334 334 333 333 333 333 333 332 333 333 332 330 328 328 328 326 328 328 328 327 329 329 328 327 324 323 324
329 330 327 329 334 336 334 327 325 327 326 324 324 326 325 328 329 330 331 331 332 331 331 331 331 332 331 331 331 329 327 327 327 328 328 327 328 328 328 328 327 325 320 319
328 327 327 327 329 330 331 328 326 325 323 326 325 325 325 325 325 326 328 330 330 329 330 331 331 331 332 330 330 328 328 327 326 327 329 326 325 325 324 323 321 316 315 316
328 328 327 329 328 327 327 326 325 326 326 326 325 326 326 326 326 327 327 327 327 326 327 328 328 330 331 331 330 328 327 326 324 322 320 317 316 315 314 314 315 316 316 314
324 325 325 326 326 326 326 326 325 325 325 325 325 326 326 326 326 326 327 328 327 327 325 327 329 329 330 329 329 328 325 323 322 318 318 316 314 316 316 316 316 316 316 314
321 321 321 322 322 322 323 323 323 324 324 324 324 324 324 324 325 325 325 326 326 326 326 326 327 328 329 329 329 325 325 322 321 318 317 316 315 315 317 317 318 318 317 316
321 321 321 321 322 322 322 323 323 323 323 323 323 323 323 323 323 323 323 323 323 323 325 328 328 324 326 327 327 326 326 323 321 319 317 317 316 316 318 318 319 319 318 318
321 321 321 321 322 322 323 323 323 322 322 322 322 321 321 321 322 322 323 323 322 322 322 323 323 325 326 326 327 326 325 325 324 321 318 318 318 318 317 318 317 317 318 318
320 321 321 321 322 321 321 321 321 321 320 320 320 318 318 317 317 318 318 320 320 321 322 323 326 325 325 325 325 325 325 325 324 323 321 319 317 317 315 316 316 317 317 315
320 320 320 321 321 322 322 321 321 321 320 318 317 317 316 315 315 316 317 318 318 319 317 319 323 324 323 323 323 325 324 324 323 318 316 315 316 315 316 316 316 313 314 315
320 321 321 321 320 319 320 320 320 320 319 317 315 314 314 315 313 314 314 315 316 316 317 320 319 318 321 323 324 323 323 320 319 315 314 314 315 315 315 314 315 313 314 313
318 319 319 319 319 319 319 319 320 318 316 315 316 314 314 313 314 314 315 316 317 318 318 319 319 320 320 320 320 320 319 316 315 314 313 313 313 313 313 313 312 313 313 313
318 317 318 317 316 317 317 316 318 317 315 316 315 313 313 313 314 315 315 316 316 316 317 317 316 316 316 316 314 313 313 313 313 312 311 311 311 313 313 313 311 310 311 311

GFSNGP_850_thetae_048.txt.gz
Theta_e
330 330 331 331 333 332 331 331 333 338 342 340 337 334 333 349 349 349 348 350 355 356 358 354 347 350 349 348 346 344 343 345 346 345 343 343 342 341 340 340 338 336 336 336
331 330 330 330 333 335 336 332 331 333 340 335 333 332 333 345 346 346 347 349 354 354 356 353 345 347 349 348 346 341 346 343 345 345 343 343 341 342 340 339 335 337 338 337
333 330 330 331 330 331 331 333 331 335 339 336 337 336 336 345 345 345 345 345 347 353 355 352 346 347 350 347 347 343 343 345 344 342 344 344 343 342 342 339 336 337 336 336
334 337 334 331 331 330 331 333 339 342 344 343 342 341 345 344 344 345 346 345 347 351 352 354 348 348 349 348 346 346 345 344 344 341 341 341 343 343 342 340 338 336 336 336
338 333 332 331 331 331 331 332 343 339 339 343 344 346 346 347 349 352 352 353 353 355 352 352 348 349 347 348 347 345 344 343 343 340 341 340 341 343 342 341 339 336 336 335
339 335 335 336 339 334 337 339 338 335 334 340 344 348 348 349 351 350 347 350 351 353 352 350 348 349 348 346 342 346 342 342 337 335 339 343 344 343 342 341 340 339 335 335
336 336 335 339 335 336 346 347 336 336 336 339 351 350 352 350 348 347 347 347 353 352 351 351 350 347 347 343 340 340 338 335 332 335 340 338 338 339 340 341 341 339 336 335
338 338 339 345 335 338 337 334 338 337 349 349 347 349 351 348 348 345 345 347 350 350 350 349 348 347 346 345 340 335 336 332 332 336 337 337 335 335 338 339 341 339 336 335
340 342 338 342 346 346 342 342 340 340 344 344 345 348 351 347 345 345 346 344 345 346 344 344 345 346 345 344 344 338 336 338 339 336 336 336 335 339 339 340 341 339 336 334
339 343 340 339 345 339 344 341 341 341 342 343 345 347 349 348 346 344 344 344 345 343 341 341 341 342 341 342 342 341 337 334 334 334 335 335 336 336 338 338 338 339 336 333
340 341 337 343 343 344 345 343 340 340 342 344 344 346 347 348 345 344 343 342 342 341 340 339 335 334 335 336 338 339 338 338 338 337 336 336 335 334 334 337 336 337 335 334
340 341 341 345 344 343 343 341 340 341 343 343 344 345 344 345 345 342 342 341 340 339 339 337 334 329 326 332 334 334 335 335 334 334 334 334 334 334 333 334 334 335 333 332
333 341 343 343 343 341 341 341 341 342 343 344 343 342 342 342 341 339 340 340 340 339 338 337 337 337 335 329 327 333 334 332 332 330 331 330 330 333 333 334 334 332 332 332
333 336 337 338 341 339 341 340 340 340 340 339 339 339 339 337 338 337 337 336 336 335 335 335 335 335 336 334 332 329 328 330 330 331 330 328 328 330 331 331 332 332 331 331
327 331 334 339 337 336 334 332 331 333 335 336 336 335 335 334 333 333 334 334 334 334 333 333 332 332 334 334 333 331 331 329 329 329 328 327 327 327 330 329 330 330 330 330
318 329 328 331 336 332 327 324 327 329 325 326 329 331 329 325 325 330 331 332 332 332 332 330 331 332 330 333 332 330 330 329 328 327 326 327 327 328 326 328 329 328 327 324
328 329 327 328 330 326 324 327 325 324 326 326 326 325 325 326 326 326 328 327 327 327 329 331 329 330 329 329 330 330 330 329 329 327 326 329 329 328 329 329 329 328 326 321
325 330 328 330 328 328 328 327 327 327 327 326 326 327 326 327 328 328 327 328 328 327 326 326 326 326 329 330 332 331 329 328 328 327 326 327 327 326 327 327 327 326 320 317
325 326 326 326 326 326 323 326 326 326 326 326 326 327 328 328 328 327 327 327 327 327 327 329 328 328 328 330 330 330 328 327 327 326 323 322 319 318 316 316 316 316 317 317
321 321 322 322 323 323 324 324 325 325 325 326 326 326 326 326 326 326 326 326 326 326 324 323 323 326 327 328 328 328 327 327 327 325 322 319 318 316 315 316 316 317 317 316
321 321 322 322 323 323 324 324 325 325 325 325 325 325 325 325 324 324 324 324 324 326 325 324 324 325 327 327 326 328 327 327 327 325 321 319 318 317 316 316 318 318 318 316
322 322 323 323 323 324 324 324 323 324 324 323 322 322 321 321 321 321 321 321 321 321 321 322 323 324 323 324 327 328 328 327 326 326 323 320 318 317 316 315 317 318 318 318
322 322 322 323 323 323 322 324 323 322 321 319 319 318 318 318 318 318 317 318 319 319 319 320 321 322 323 325 325 327 327 325 325 325 325 322 319 318 318 317 317 318 318 318
321 321 322 322 322 321 321 322 321 320 320 318 317 316 315 315 315 315 315 315 315 315 316 315 317 317 318 322 324 324 324 326 323 324 324 323 322 319 317 317 316 316 316 317
321 321 322 322 321 321 321 321 320 320 318 317 316 315 314 314 315 315 315 315 316 317 315 316 317 319 321 320 322 322 322 321 321 321 322 318 316 316 315 315 316 316 316 315
321 321 320 319 319 320 319 319 320 318 317 316 315 314 314 314 315 316 316 316 316 317 317 317 317 317 317 318 319 319 318 318 315 315 315 314 314 314 313 313 312 312 312 313
319 319 320 320 319 319 318 318 318 317 317 316 316 314 313 312 312 313 315 315 315 315 315 315 314 314 313 314 314 314 313 313 313 313 313 313 312 311 311 311 312 312 311 311